Date,TemperatureHighF,TemperatureAvgF,TemperatureLowF,DewpointHighF,DewpointAvgF,DewpointLowF,HumidityHigh,HumidityAvg,HumidityLow,PressureMaxIn,PressureMinIn,WindSpeedMaxMPH,WindSpeedAvgMPH,GustSpeedMaxMPH,PrecipitationSumIn
2013-2-1,43.4,39.5,36.4,36.2,35.0,33.1,97,84,71,29.83,29.29,21,8,33,0.04
2013-2-2,38.5,35.9,30.3,37.7,32.7,23.8,98,88,76,29.74,29.18,18,6,22,0.02
2013-2-3,34.9,31.0,26.8,30.2,24.8,20.8,94,78,66,29.96,29.74,21,8,24,0.01
2013-2-4,40.5,35.3,31.1,37.6,33.2,29.7,96,92,88,29.83,29.73,24,10,33,0.28
2013-2-5,41.9,37.8,34.0,36.8,34.0,30.2,94,87,73,29.82,29.48,16,7,33,0.02
2013-2-6,37.5,32.4,26.6,29.8,25.5,21.2,90,76,53,29.60,29.49,11,4,15,0.00
2013-2-7,35.2,29.4,25.6,29.7,26.1,22.3,95,88,73,29.82,29.60,11,2,14,0.00
2013-2-8,32.7,28.3,25.2,26.8,24.7,22.6,93,87,71,29.95,29.82,9,2,12,0.02
2013-2-9,29.9,27.7,25.3,25.5,23.7,21.3,94,85,74,30.07,29.95,9,2,11,0.01
2013-2-10,29.0,26.3,24.2,23.2,21.5,18.3,92,82,65,30.06,29.92,8,2,12,0.00
2013-2-11,27.6,25.1,21.9,22.2,20.6,18.6,91,83,77,29.92,29.78,16,5,18,0.00
2013-2-12,27.6,26.7,25.5,26.6,24.5,22.2,96,92,80,29.95,29.75,11,4,16,0.00
2013-2-13,29.0,27.2,26.4,26.7,25.8,24.6,97,94,89,30.32,29.95,10,3,13,0.00
2013-2-14,30.6,27.6,25.8,27.6,25.8,24.5,96,93,88,30.32,30.12,8,2,10,0.02
2013-2-15,33.2,30.5,27.9,30.0,28.7,26.4,97,93,87,30.18,30.06,5,1,8,0.02
2013-2-16,32.9,30.9,28.6,31.2,29.4,27.6,97,94,90,30.26,30.18,4,1,5,0.06
2013-2-17,33.4,30.7,28.2,30.8,28.7,27.0,98,92,83,30.27,30.23,4,1,7,0.02
2013-2-18,33.1,31.1,29.7,29.6,28.7,26.9,96,91,84,30.23,30.10,6,1,9,0.00
2013-2-19,31.5,30.2,28.0,30.7,28.2,25.8,97,93,83,30.10,29.82,17,7,23,0.00
2013-2-20,28.4,26.7,24.0,26.7,25.0,22.5,96,93,87,30.14,29.96,10,4,16,0.00
2013-2-21,25.4,22.8,20.2,22.9,20.4,17.4,95,91,81,30.16,30.09,11,2,13,0.03
2013-2-22,23.9,20.9,17.5,22.4,18.8,15.0,95,91,87,30.09,29.88,14,6,20,0.00
2013-2-23,29.3,25.8,23.0,28.3,24.7,21.6,97,96,94,29.88,29.75,9,2,13,0.00
2013-2-24,36.5,32.2,27.1,35.6,31.2,26.3,98,97,90,29.96,29.77,7,2,9,0.41
2013-2-25,40.2,37.8,35.4,39.4,37.0,34.8,99,97,93,30.26,29.94,9,3,10,0.19
2013-2-26,38.5,35.4,31.7,37.7,34.7,31.2,99,97,95,30.37,30.25,10,3,13,0.00
2013-2-27,34.5,32.5,31.0,33.6,31.9,30.7,99,98,95,30.43,30.37,8,2,12,0.02
2013-2-28,38.0,34.6,32.3,32.9,31.9,30.2,97,90,80,30.41,30.21,7,1,10,0.00